CAPE
0 0 0 0 0 995 1400 458 20 0 0 0 0 0 0 0 0 0 0 0 0 0 0 0 0 0 0 0 0 0 0 0 0 0 0 0 0 0 0 0 0 0 0
0 0 0 0 102 1219 1465 540 3 0 0 0 0 0 0 0 0 0 0 0 0 0 0 0 0 0 0 0 0 0 0 0 0 0 0 0 0 0 0 0 0 0 0
0 0 0 0 293 922 1518 522 42 0 0 0 0 0 0 0 0 0 0 0 0 0 0 0 0 0 0 0 0 0 0 0 0 0 0 0 0 0 0 0 0 0 0
0 0 0 0 876 1101 1496 492 57 0 0 0 0 0 0 0 0 0 0 0 0 0 0 0 0 0 0 0 0 0 0 0 0 0 0 0 0 0 0 0 0 0 0
0 0 0 0 0 1315 1352 461 65 0 0 0 0 0 0 0 0 0 0 0 0 0 0 0 0 0 0 0 0 0 0 0 0 0 0 0 0 0 0 0 0 0 0
0 0 0 0 0 1002 1042 369 40 0 0 0 0 0 0 0 0 0 0 0 0 0 0 0 0 0 0 0 0 0 0 0 0 0 0 0 0 0 0 0 0 0 0
0 0 0 0 0 16 48 84 20 0 0 0 0 0 0 0 0 0 0 0 0 0 0 0 0 0 0 0 0 0 0 0 0 0 0 0 0 0 0 0 0 0 0
0 0 0 0 0 1 0 0 0 0 0 0 0 0 0 0 0 0 0 0 0 0 0 0 0 0 0 0 0 0 0 0 0 0 0 0 0 0 0 0 0 0 0
0 0 0 0 0 0 0 0 0 0 0 0 0 0 0 0 0 0 0 0 0 0 0 0 0 0 0 0 0 0 0 0 0 0 0 0 0 0 0 0 0 0 0
0 0 0 0 0 0 0 7 0 0 0 0 0 0 0 0 0 0 0 0 0 0 0 0 0 0 0 0 0 0 0 0 0 0 0 0 0 0 0 0 0 0 0
11 0 0 0 0 0 0 0 0 0 0 0 0 0 0 0 0 0 0 0 0 0 0 0 0 0 0 0 0 0 0 0 0 0 0 0 0 0 0 0 0 0 0
35 1 0 0 0 0 0 0 0 0 0 0 0 0 0 0 0 0 0 0 0 0 0 0 0 0 0 0 0 0 0 0 0 0 0 0 0 0 0 0 0 0 0
7 82 32 9 0 0 0 0 0 0 0 0 0 0 0 0 0 0 0 0 0 0 0 0 0 0 0 0 0 0 0 0 0 0 0 0 0 0 0 0 0 0 0
37 77 38 21 3 0 2 5 1 0 1 0 0 0 0 0 0 0 0 0 1 2 4 3 2 0 0 0 0 0 0 0 0 0 0 0 0 0 0 0 0 0 0
75 41 188 5 62 0 2 0 1 5 4 2 1 0 1 1 1 4 3 5 6 10 7 5 1 0 0 0 0 0 0 0 0 0 0 0 0 0 0 0 0 0 0
18 48 95 57 85 0 0 0 0 0 2 1 1 1 0 1 1 1 2 2 4 11 6 2 0 0 0 0 0 0 0 0 0 0 0 0 0 0 0 0 0 0 0
175 90 72 308 144 29 0 0 0 0 1 0 1 1 1 1 1 2 2 2 5 4 1 0 0 0 0 0 0 0 0 0 0 0 0 0 0 0 0 0 0 0 0
96 65 28 84 338 148 0 0 0 0 0 0 1 1 1 1 1 1 2 2 3 2 0 0 0 0 0 0 0 0 0 0 0 0 0 0 0 0 0 0 0 0 0
0 2 23 60 107 167 83 0 0 0 0 0 0 1 0 0 0 0 1 2 1 0 0 0 0 0 0 0 0 0 0 0 0 0 0 0 0 0 0 0 0 0 0
23 23 21 9 106 228 248 2 0 1 0 0 0 0 0 0 0 0 0 0 0 0 0 0 0 0 0 0 0 0 0 0 0 0 0 0 0 0 0 0 0 0 0
0 0 10 20 11 18 269 10 0 0 0 0 0 0 0 0 0 0 0 2 0 0 0 0 0 0 0 0 0 0 0 0 0 0 0 0 0 0 0 0 0 0 0
0 0 5 3 0 0 0 0 0 0 0 0 0 0 0 0 0 1 2 1 0 0 0 0 0 0 0 0 0 0 0 0 0 0 0 0 0 0 0 0 0 0 0
0 0 1 0 0 0 0 1 1 0 0 0 0 0 0 1 1 1 1 0 0 0 0 0 0 1 0 0 0 0 0 0 0 0 0 0 0 0 0 0 0 0 0
0 0 0 0 0 0 0 1 3 1 0 0 1 1 1 3 4 1 0 0 0 0 0 0 0 1 1 0 0 0 0 0 0 0 0 0 0 0 0 0 0 0 0
0 12 10 0 0 0 0 2 6 7 2 2 4 4 4 2 3 1 0 0 4 1 0 0 1 0 1 0 0 0 0 0 0 0 0 0 0 0 0 0 0 0 0
5 59 1 0 0 0 0 5 7 7 5 6 5 4 3 4 3 2 2 6 1 9 2 4 2 0 3 3 1 0 0 0 0 0 0 0 0 0 0 0 0 0 0
CIN
-0 -0 -0 -0 -0 -56 -137 -291 -548 -0 -0 -0 -0 -0 -0 -0 -0 -0 -0 -0 -0 -0 -0 -0 -0 -0 -0 -0 -0 -0 -0 -0 -0 -0 -0 -0 -0 -0 -0 -0 -0 -0 -0
-0 -0 -0 -0 -230 -76 -124 -191 -343 -0 -0 -0 -0 -0 -0 -0 -0 -0 -0 -0 -0 -0 -0 -0 -0 -0 -0 -0 -0 -0 -0 -0 -0 -0 -0 -0 -0 -0 -0 -0 -0 -0 -0
-0 -0 -0 -0 -144 -79 -106 -266 -412 -0 -0 -0 -0 -0 -0 -0 -0 -0 -0 -0 -0 -0 -0 -0 -0 -0 -0 -0 -0 -0 -0 -0 -0 -0 -0 -0 -0 -0 -0 -0 -0 -0 -0
-0 -0 -0 -0 -66 -77 -61 -243 -449 -0 -0 -0 -0 -0 -0 -0 -0 -0 -0 -0 -0 -0 -0 -0 -0 -0 -0 -0 -0 -0 -0 -0 -0 -0 -0 -0 -0 -0 -0 -0 -0 -0 -0
-0 -0 -0 -0 -0 -38 -69 -161 -374 -0 -0 -0 -0 -0 -0 -0 -0 -0 -0 -0 -0 -0 -0 -0 -0 -0 -0 -0 -0 -0 -0 -0 -0 -0 -0 -0 -0 -0 -0 -0 -0 -0 -0
-0 -0 -0 -0 -0 -33 -53 -98 -270 -0 -0 -0 -0 -0 -0 -0 -0 -0 -0 -0 -0 -0 -0 -0 -0 -0 -0 -0 -0 -0 -0 -0 -0 -0 -0 -0 -0 -0 -0 -0 -0 -0 -0
-0 -0 -0 -0 -0 -152 -66 -144 -147 -0 -0 -0 -0 -0 -0 -0 -0 -0 -0 -0 -0 -0 -0 -0 -0 -0 -0 -0 -0 -0 -0 -0 -0 -0 -0 -0 -0 -0 -0 -0 -0 -0 -0
-0 -0 -0 -0 -0 -12 -0 -0 -0 -0 -0 -0 -0 -0 -0 -0 -0 -0 -0 -0 -0 -0 -0 -0 -0 -0 -0 -0 -0 -0 -0 -0 -0 -0 -0 -0 -0 -0 -0 -0 -0 -0 -0
-0 -0 -0 -0 -0 -0 -0 -0 -0 -0 -0 -0 -0 -0 -0 -0 -0 -0 -0 -0 -0 -0 -0 -0 -0 -0 -0 -0 -0 -0 -0 -0 -0 -0 -0 -0 -0 -0 -0 -0 -0 -0 -0
-0 -0 -0 -0 -0 -0 -0 -160 -7 -0 -0 -0 -0 -0 -0 -0 -0 -0 -0 -0 -0 -0 -0 -0 -0 -0 -0 -0 -0 -0 -0 -0 -0 -0 -0 -0 -0 -0 -0 -0 -0 -0 -0
-1 -0 -0 -0 -0 -0 -0 -0 -0 -0 -0 -0 -0 -0 -0 -0 -0 -0 -0 -0 -0 -0 -0 -0 -0 -0 -0 -0 -0 -0 -0 -0 -0 -0 -0 -0 -0 -0 -0 -0 -0 -0 -0
-1 -25 -0 -0 -0 -0 -0 -0 -0 -0 -0 -0 -0 -0 -0 -0 -0 -0 -0 -0 -0 -0 -0 -0 -0 -0 -0 -0 -0 -0 -0 -0 -0 -0 -0 -0 -0 -0 -0 -0 -0 -0 -0
-9 -6 -62 -130 -0 -0 -0 -1 -0 -0 -0 -0 -0 -0 -1 -0 -0 -0 -0 -0 -0 -0 -0 -0 -0 -0 -0 -0 -0 -0 -0 -0 -0 -0 -0 -0 -0 -0 -0 -0 -0 -0 -0
-21 -13 -90 -139 -89 -0 -0 -0 -0 -0 -0 -0 -0 -0 -0 -0 -0 -1 -0 -0 -0 -0 -0 -0 -0 -0 -0 -0 -0 -0 -0 -0 -0 -0 -0 -0 -0 -0 -0 -0 -0 -0 -0
-7 -17 -61 -195 -108 -0 -1 -0 -0 -0 -0 -0 -0 -0 -0 -0 -0 -0 -0 -0 -0 -0 -0 -0 -0 -0 -0 -0 -0 -0 -0 -0 -0 -0 -0 -0 -0 -0 -0 -0 -0 -0 -0
-24 -0 -0 -74 -53 -0 -0 -0 -0 -0 -1 -0 -0 -0 -0 -0 -0 -0 -0 -0 -0 -0 -0 -0 -0 -0 -0 -0 -0 -0 -0 -0 -0 -0 -0 -0 -0 -0 -0 -0 -0 -0 -0
-58 -87 -9 -27 -22 -100 -0 -0 -0 -0 -0 -0 -0 -0 -0 -0 -0 -0 -0 -0 -0 -0 -0 -0 -0 -0 -0 -0 -0 -0 -0 -0 -0 -0 -0 -0 -0 -0 -0 -0 -0 -0 -0
-36 -52 -9 -11 -30 -59 -0 -0 -0 -0 -0 -0 -0 -0 -0 -0 -0 -0 -0 -0 -0 -0 -0 -0 -0 -0 -0 -0 -0 -0 -0 -0 -0 -0 -0 -0 -0 -0 -0 -0 -0 -0 -0
-0 -21 -30 -40 -42 -18 -64 -0 -0 -0 -0 -0 -0 -0 -0 -0 -0 -0 -0 -0 -0 -0 -0 -0 -0 -0 -0 -0 -0 -0 -0 -0 -0 -0 -0 -0 -0 -0 -0 -0 -0 -0 -0
-38 -49 -60 -53 -31 -51 -89 -8 -0 -0 -0 -0 -0 -0 -0 -0 -0 -0 -0 -0 -0 -0 -0 -0 -0 -0 -0 -0 -0 -0 -0 -0 -0 -0 -0 -0 -0 -0 -0 -0 -0 -0 -0
-0 -0 -114 -121 -217 -223 -85 -97 -0 -0 -0 -0 -0 -0 -0 -0 -0 -0 -0 -0 -0 -0 -0 -0 -0 -0 -0 -0 -0 -0 -0 -0 -0 -0 -0 -0 -0 -0 -0 -0 -0 -0 -0
-0 -0 -124 -233 -0 -0 -0 -0 -0 -0 -0 -0 -0 -0 -0 -0 -0 -0 -0 -0 -0 -0 -0 -0 -0 -0 -0 -0 -0 -0 -0 -0 -0 -0 -0 -0 -0 -0 -0 -0 -0 -0 -0
-0 -0 -110 -0 -0 -0 -0 -0 -0 -0 -0 -0 -0 -0 -0 -0 -0 -0 -0 -0 -0 -0 -0 -0 -0 -1 -0 -0 -0 -0 -0 -0 -0 -0 -0 -0 -0 -0 -0 -0 -0 -0 -0
-0 -0 -0 -0 -0 -0 -0 -0 -0 -0 -0 -0 -0 -0 -0 -0 -0 -0 -0 -0 -0 -0 -0 -0 -2 -1 -0 -0 -0 -0 -0 -0 -0 -0 -0 -0 -0 -0 -0 -0 -0 -0 -0
-0 -113 -168 -13 -0 -0 -0 -0 -0 -0 -0 -0 -0 -0 -0 -0 -0 -0 -0 -0 -12 -2 -0 -0 -1 -0 -0 -0 -0 -0 -0 -0 -0 -0 -0 -0 -0 -0 -0 -0 -0 -3 -1
-2 -48 -57 -0 -0 -0 -0 -0 -0 -0 -0 -0 -0 -0 -0 -0 -0 -0 -1 -0 -1 -0 -1 -0 -1 -0 -0 -0 -0 -0 -0 -0 -0 -0 -0 -0 -0 -0 -0 -0 -0 -3 -0
Wind_Speed
12 14 11 11 12 7 20 23 22 19 14 9 10 9 9 6 7 7 10 6 5 5 6 5 5 3 4 5 3 1 3 4 4 3 4 4 3 4 5 6 5 5 6
14 16 15 13 13 14 18 18 19 19 16 11 10 7 9 6 5 7 7 6 5 5 5 6 5 6 5 4 1 1 2 3 3 2 4 4 3 3 4 6 6 5 6
4 8 10 14 14 15 20 21 19 16 14 12 9 8 7 6 5 8 6 5 5 5 7 5 5 5 5 4 3 3 4 3 2 4 2 1 2 7 3 7 5 6 5
2 5 9 10 2 9 14 19 20 20 17 14 12 12 10 10 8 7 7 6 6 6 6 6 6 5 5 5 4 4 3 3 5 3 4 6 4 3 4 3 4 5 6
4 6 7 9 12 7 7 16 17 17 18 17 12 11 11 7 8 8 11 7 5 6 7 6 6 6 6 6 7 5 6 5 5 4 3 3 4 4 4 4 3 4 3
5 3 5 6 9 4 4 10 11 14 15 15 10 15 12 11 11 10 9 7 5 5 6 7 6 8 7 6 5 6 7 6 5 4 4 4 3 2 3 3 2 3 3
4 3 6 6 7 13 10 4 7 8 11 13 9 7 11 10 15 15 10 10 7 6 6 7 7 7 7 6 6 6 6 6 4 5 4 5 4 3 3 2 2 1 2
3 5 7 4 4 5 8 6 6 6 7 8 8 6 6 4 10 13 11 8 7 7 8 9 9 9 8 7 5 7 5 6 6 7 6 5 4 4 4 2 1 2 1
5 6 7 6 4 4 3 5 6 6 7 7 7 5 6 6 10 11 12 10 11 9 10 10 9 7 6 7 7 7 6 5 6 4 6 5 4 4 4 3 2 1 1
7 6 6 5 5 6 13 8 6 8 8 9 10 10 11 11 11 12 14 13 12 12 10 11 9 7 6 4 8 6 6 6 5 4 5 5 3 4 3 3 3 3 2
7 8 7 4 8 12 11 12 12 11 10 9 10 12 12 13 13 14 14 14 12 11 11 9 10 8 8 5 6 7 6 7 6 6 4 4 5 5 3 2 3 3 3
5 7 6 5 7 9 8 9 9 9 8 9 9 10 12 13 14 14 13 13 12 10 10 10 11 10 9 8 7 4 5 6 5 6 5 3 5 6 3 2 3 3 3
21 6 7 5 7 6 8 7 8 9 9 8 10 10 10 12 13 14 14 13 12 11 10 9 10 11 8 8 6 6 5 5 5 5 5 5 6 6 4 2 5 4 5
11 15 10 6 9 5 8 7 8 9 9 10 9 10 11 11 12 12 13 13 11 10 10 10 10 10 11 10 8 7 7 5 6 6 9 9 7 6 5 6 7 6 5
18 15 14 11 10 10 8 5 8 9 9 10 10 10 10 10 11 11 10 10 10 9 10 10 10 9 7 6 7 7 7 8 6 7 9 7 8 10 6 5 5 5 4
16 10 3 13 11 13 12 11 10 10 11 9 10 10 11 10 9 10 10 9 10 8 10 10 9 8 8 7 8 6 7 8 7 6 8 8 8 7 7 6 3 1 3
6 11 7 8 8 12 15 14 14 12 10 11 10 11 12 11 11 11 11 11 10 10 10 10 9 9 6 7 8 3 5 5 6 6 8 6 7 9 6 3 7 12 8
9 11 6 2 11 10 13 13 15 15 13 12 12 13 12 13 12 11 12 11 10 10 9 10 11 9 6 7 5 3 5 6 5 6 6 9 9 8 6 4 5 5 3
5 5 5 5 5 2 13 17 15 14 13 12 12 12 13 12 12 11 12 10 9 10 10 10 13 9 6 8 4 5 5 7 7 8 8 7 10 10 9 4 5 5 3
8 6 4 1 5 7 9 17 15 14 14 14 13 12 12 15 11 8 9 8 9 10 8 9 13 13 7 8 4 5 3 7 4 8 8 11 9 9 7 4 4 4 7
8 1 4 5 7 7 7 11 10 10 10 11 13 12 12 12 11 12 8 8 8 10 9 8 12 12 8 6 6 8 6 3 2 4 6 5 9 6 4 4 4 3 5
9 5 4 7 7 8 8 7 6 7 11 12 13 13 14 11 10 12 10 8 10 9 8 9 8 9 9 9 8 10 9 3 3 3 4 6 6 3 1 1 3 4 4
4 7 4 8 7 8 7 7 5 9 11 12 13 14 13 12 11 12 10 9 9 7 7 7 7 8 7 5 10 10 9 7 4 5 5 5 2 2 4 7 5 3 3
7 6 4 5 7 7 8 9 9 9 11 12 12 11 12 12 10 7 7 7 8 8 7 7 6 7 8 7 5 4 4 7 4 4 4 5 4 3 3 2 4 3 3
4 8 5 4 6 7 9 10 9 9 9 11 11 10 9 11 9 7 7 5 3 7 8 7 7 8 8 8 11 10 6 5 4 4 1 2 4 3 1 1 0 2 1
4 9 7 6 6 8 9 8 10 9 12 10 9 8 8 8 7 8 5 9 7 10 12 10 6 3 10 18 17 15 14 12 7 2 2 3 2 1 1 1 1 2 2
Wind_Direction
239 253 230 214 203 194 155 163 163 164 163 181 182 176 172 163 150 153 140 168 149 152 125 122 165 144 95 95 149 137 139 26 6 120 128 112 106 130 128 98 55 56 93
236 231 238 211 185 162 157 163 167 164 171 175 183 173 169 154 148 119 143 142 154 148 137 139 149 110 101 108 54 7 112 88 30 292 170 155 154 152 132 103 98 26 48
33 354 352 326 172 165 160 162 164 167 174 175 176 160 170 153 139 142 141 140 143 160 110 106 102 109 124 116 104 29 39 145 66 40 46 294 157 132 117 101 96 80 83
64 5 349 336 228 161 152 163 165 166 174 183 182 180 179 173 156 148 142 147 152 128 117 106 110 106 90 102 92 30 22 3 135 79 66 64 58 54 135 105 113 118 105
43 18 6 343 332 164 129 164 169 168 172 182 180 178 176 165 150 151 143 140 132 119 120 116 110 103 91 75 71 57 39 20 66 45 51 70 75 31 66 135 126 107 114
63 31 36 3 334 57 95 139 160 163 170 185 185 171 171 163 154 149 147 144 130 124 122 118 102 96 96 101 98 82 67 60 65 67 40 44 45 50 64 76 76 139 142
121 74 64 27 12 50 50 81 132 161 158 172 173 167 158 157 157 144 149 147 144 136 129 114 106 101 100 94 95 87 75 73 68 68 70 59 43 49 49 41 40 60 240
133 107 91 60 24 62 90 62 101 121 120 122 123 120 109 129 143 150 149 147 146 125 95 89 95 96 101 97 83 83 76 70 66 56 68 78 57 37 26 58 16 276 223
80 61 77 61 40 33 70 121 81 94 120 107 96 103 94 114 143 125 124 106 107 107 105 95 91 91 89 97 100 97 92 90 76 66 59 93 79 40 28 18 45 325 59
136 106 66 67 72 62 47 44 88 85 85 98 103 101 100 95 102 99 105 108 108 105 109 121 119 108 89 101 84 108 98 95 95 64 64 72 84 91 58 330 35 21 34
115 97 88 74 72 70 69 73 68 73 74 75 98 106 112 112 112 109 114 114 119 130 141 126 115 124 121 91 81 75 95 97 105 109 87 89 65 79 61 343 42 27 48
328 66 86 90 83 93 88 89 89 83 83 93 98 106 116 118 118 121 122 123 128 123 125 122 130 123 110 109 113 106 106 100 116 105 115 137 115 110 44 44 61 49 23
312 145 120 114 109 120 113 118 124 114 112 112 117 119 120 123 123 124 126 125 126 123 126 128 110 103 98 99 104 109 114 113 106 109 107 69 79 60 11 20 60 42 9
277 290 126 151 121 137 138 149 132 131 129 129 131 124 127 126 124 124 124 128 132 136 141 135 135 133 150 155 151 128 110 107 84 74 75 69 58 57 3 50 36 25 3
243 210 163 141 151 147 151 160 142 142 148 146 143 135 130 128 126 124 130 136 142 136 131 131 141 135 129 129 132 141 131 123 123 117 107 100 109 99 68 65 36 24 19
259 286 126 142 165 155 159 164 144 163 158 155 149 136 130 128 128 129 133 139 140 140 144 141 139 134 105 101 70 104 148 144 140 136 128 145 151 152 131 107 141 96 47
60 30 350 147 170 173 167 165 160 156 160 147 141 145 143 143 147 147 149 143 141 139 139 142 119 103 134 152 100 81 156 138 137 150 144 158 102 69 37 35 301 218 215
132 155 220 41 171 181 162 155 159 149 153 162 162 160 159 155 155 151 148 144 144 147 158 142 127 128 145 142 116 37 125 112 102 86 80 104 90 63 51 4 321 2 27
96 90 71 42 8 338 170 158 162 164 162 170 168 167 158 154 153 157 150 151 156 157 147 153 134 128 147 148 91 16 134 119 101 83 48 62 89 63 39 7 0 342 34
89 83 88 74 64 18 343 156 168 170 170 172 169 162 158 151 156 144 135 142 148 154 149 150 133 140 137 139 91 19 124 116 126 127 112 88 88 70 46 15 348 353 31
95 85 100 91 70 41 357 142 153 174 165 155 153 152 152 144 135 129 142 146 156 164 163 131 127 130 134 140 115 33 104 108 134 129 122 109 93 79 54 33 42 23 333
128 122 119 85 78 74 83 103 129 124 139 146 152 148 147 144 142 143 144 157 174 159 151 132 132 126 130 136 121 74 107 96 99 87 85 100 87 98 57 358 31 351 328
68 97 102 113 103 101 111 119 127 134 140 147 152 149 144 142 144 143 156 171 163 157 144 148 142 133 136 133 145 125 110 71 57 82 99 96 113 167 245 218 235 257 266
136 120 119 130 117 120 120 130 138 142 143 144 146 144 140 140 140 137 157 170 162 152 159 159 156 150 146 148 158 143 137 136 136 139 167 195 199 233 254 329 267 209 233
120 131 119 98 124 135 127 140 139 141 143 141 139 141 141 141 136 144 168 159 138 167 163 172 167 165 175 169 169 160 171 157 89 118 189 214 195 204 181 218 357 261 251
105 124 128 132 137 141 147 144 149 155 152 148 143 140 140 134 134 138 147 128 135 159 168 181 155 145 177 159 142 124 125 116 106 92 225 233 185 157 185 270 284 271 296